Location: Unspecified
(0.0000°N, 0.0000°E)
Time: 20:50:21
(UTC+02:00)

Ariane H10+ - Visible Passes

Search period start: 02 September 2014 00:00
Search period end: 12 September 2014 00:00
Orbit: 299 x 31870 km, 7.1° (Epoch: 01 September)

Date Brightness Start Highest point End Pass type
(mag) Time Alt. Az. Time Alt. Az. Time Alt. Az.
02 Sep 6.8 06:27:50 26° WNW 13:10:50 77° E 15:03:23 10° E visible
04 Sep 6.1 05:00:03 69° NNW 05:01:36 72° N 13:23:49 10° E visible
06 Sep 7.0 06:23:02 10° E 03:32:05 38° ENE 11:32:14 10° E visible
06 Sep 3.9 21:32:04 10° W 21:44:25 51° S 21:44:36 51° S visible
07 Sep 7.5 07:28:14 10° W 12:18:36 89° NNW 16:08:10 10° E visible
09 Sep 6.6 05:59:00 37° WNW 06:09:47 75° N 14:31:52 10° E visible
11 Sep 6.3 04:30:36 69° NNE 04:30:36 69° NNE 12:50:16 10° E visible
11 Sep 6.2 22:41:35 10° WSW 22:42:38 14° WSW 22:42:38 14° WSW visible
